Total_Precipitation_Accumulation
0.11 0.16 0.46 0.63 0.66 0.58 0.49 0.42 0.39 0.39 0.38 0.35 0.33 0.31 0.28 0.28 0.27 0.27 0.28 0.30 0.34 0.41 0.49 0.51 0.56 0.68 0.64 0.46 0.32 0.22 0.19 0.17 0.15 0.15 0.14 0.18 0.22 0.25 0.21 0.19 0.22 0.29 0.39
0.11 0.20 0.45 0.66 0.76 0.71 0.61 0.52 0.44 0.40 0.38 0.39 0.39 0.39 0.36 0.32 0.33 0.35 0.38 0.40 0.44 0.50 0.54 0.58 0.61 0.65 0.59 0.45 0.27 0.16 0.11 0.08 0.07 0.05 0.04 0.06 0.13 0.20 0.16 0.15 0.19 0.30 0.37
0.14 0.24 0.45 0.68 0.82 0.80 0.74 0.64 0.56 0.52 0.47 0.47 0.51 0.50 0.49 0.45 0.44 0.46 0.49 0.50 0.53 0.54 0.55 0.61 0.60 0.58 0.51 0.40 0.26 0.17 0.11 0.08 0.06 0.04 0.04 0.07 0.15 0.21 0.19 0.20 0.26 0.34 0.39
0.20 0.29 0.46 0.69 0.88 0.88 0.83 0.75 0.69 0.71 0.65 0.60 0.61 0.62 0.60 0.58 0.56 0.57 0.57 0.56 0.55 0.53 0.52 0.53 0.45 0.42 0.32 0.27 0.23 0.19 0.13 0.09 0.06 0.05 0.07 0.09 0.17 0.30 0.31 0.30 0.32 0.35 0.37
0.33 0.41 0.59 0.78 0.94 0.98 0.89 0.88 0.84 0.87 0.85 0.79 0.73 0.73 0.76 0.74 0.68 0.62 0.58 0.58 0.53 0.51 0.46 0.42 0.34 0.26 0.22 0.20 0.18 0.18 0.13 0.10 0.06 0.06 0.07 0.10 0.16 0.32 0.31 0.29 0.27 0.29 0.36
0.47 0.54 0.74 0.91 1.04 1.07 0.97 0.94 0.94 0.96 0.98 0.95 0.85 0.82 0.84 0.84 0.76 0.63 0.58 0.54 0.48 0.44 0.42 0.36 0.29 0.23 0.20 0.19 0.17 0.16 0.14 0.09 0.06 0.06 0.07 0.10 0.15 0.27 0.27 0.24 0.24 0.27 0.32
0.68 0.76 0.89 1.11 1.27 1.31 1.21 1.12 1.07 1.04 1.05 1.06 0.97 0.87 0.89 0.94 0.92 0.73 0.59 0.50 0.43 0.40 0.36 0.33 0.27 0.23 0.20 0.19 0.20 0.17 0.13 0.09 0.07 0.07 0.08 0.11 0.18 0.30 0.28 0.25 0.25 0.27 0.29
0.89 0.96 1.12 1.35 1.43 1.51 1.42 1.31 1.27 1.20 1.11 1.08 1.08 1.03 0.98 1.00 1.02 0.84 0.62 0.52 0.46 0.40 0.35 0.34 0.31 0.24 0.21 0.21 0.21 0.17 0.13 0.08 0.06 0.06 0.07 0.10 0.18 0.29 0.30 0.28 0.27 0.28 0.29
1.17 1.27 1.34 1.46 1.57 1.71 1.55 1.35 1.32 1.31 1.24 1.18 1.15 1.11 1.02 1.01 0.97 0.84 0.64 0.55 0.52 0.45 0.38 0.36 0.36 0.31 0.25 0.24 0.22 0.17 0.13 0.09 0.05 0.06 0.06 0.08 0.14 0.25 0.31 0.33 0.32 0.33 0.32
1.46 1.57 1.57 1.56 1.63 1.80 1.74 1.48 1.32 1.22 1.21 1.25 1.19 1.03 0.85 0.83 0.87 0.81 0.58 0.52 0.52 0.47 0.40 0.38 0.38 0.37 0.31 0.24 0.20 0.17 0.14 0.14 0.09 0.07 0.07 0.09 0.16 0.26 0.29 0.32 0.34 0.36 0.37
1.80 1.84 1.84 1.76 1.67 1.75 1.80 1.58 1.47 1.34 1.28 1.27 1.23 1.00 0.84 0.85 0.84 0.76 0.55 0.41 0.46 0.45 0.41 0.40 0.43 0.41 0.34 0.25 0.20 0.15 0.13 0.14 0.12 0.11 0.09 0.11 0.19 0.28 0.32 0.33 0.32 0.35 0.35
1.90 1.96 2.02 1.91 1.85 1.86 1.87 1.75 1.69 1.54 1.42 1.34 1.22 1.10 0.99 0.91 0.90 0.79 0.65 0.45 0.43 0.44 0.44 0.45 0.45 0.48 0.39 0.28 0.22 0.19 0.15 0.13 0.14 0.12 0.10 0.14 0.25 0.31 0.35 0.34 0.32 0.33 0.34
2.10 2.15 2.22 2.09 2.06 2.02 1.97 1.82 1.73 1.59 1.52 1.47 1.41 1.22 1.15 1.09 0.99 0.97 0.84 0.70 0.60 0.48 0.49 0.47 0.49 0.44 0.37 0.30 0.27 0.22 0.19 0.18 0.17 0.13 0.11 0.15 0.26 0.35 0.43 0.45 0.40 0.37 0.39
2.34 2.45 2.43 2.36 2.31 2.20 2.10 1.92 1.72 1.57 1.47 1.42 1.40 1.37 1.28 1.21 1.09 0.98 0.87 0.74 0.68 0.56 0.51 0.48 0.44 0.39 0.35 0.35 0.35 0.29 0.24 0.20 0.16 0.15 0.13 0.14 0.20 0.33 0.42 0.46 0.47 0.48 0.51
2.60 2.64 2.68 2.61 2.47 2.28 2.19 2.09 1.78 1.57 1.39 1.36 1.40 1.38 1.32 1.19 1.09 1.02 0.92 0.87 0.77 0.64 0.57 0.54 0.48 0.43 0.39 0.38 0.37 0.30 0.28 0.24 0.21 0.20 0.18 0.16 0.16 0.26 0.39 0.44 0.48 0.53 0.57
2.79 2.90 2.97 2.86 2.67 2.35 2.13 2.11 1.92 1.68 1.48 1.39 1.34 1.33 1.38 1.31 1.19 1.15 0.96 0.93 0.88 0.80 0.73 0.67 0.60 0.57 0.51 0.48 0.43 0.37 0.35 0.31 0.30 0.30 0.27 0.22 0.18 0.18 0.29 0.43 0.57 0.67 0.73
2.87 3.07 3.14 3.13 2.95 2.57 2.25 2.12 1.98 1.82 1.67 1.53 1.29 1.23 1.27 1.35 1.39 1.38 1.13 1.00 0.95 0.92 0.92 0.87 0.80 0.77 0.67 0.57 0.50 0.47 0.41 0.35 0.30 0.30 0.28 0.27 0.23 0.20 0.22 0.34 0.51 0.63 0.71
2.94 3.08 3.15 3.18 3.13 2.86 2.48 2.30 2.12 1.91 1.80 1.70 1.50 1.35 1.26 1.30 1.45 1.56 1.32 1.13 1.05 1.03 1.01 0.94 0.86 0.82 0.73 0.66 0.57 0.50 0.45 0.39 0.34 0.30 0.28 0.26 0.25 0.22 0.20 0.23 0.34 0.49 0.59
2.77 3.01 3.25 3.21 3.15 3.06 2.82 2.62 2.44 2.19 2.00 1.85 1.63 1.46 1.43 1.42 1.48 1.62 1.40 1.20 1.15 1.12 1.03 1.03 0.97 0.89 0.79 0.71 0.66 0.59 0.53 0.47 0.40 0.35 0.30 0.26 0.25 0.24 0.21 0.20 0.22 0.28 0.40
2.56 2.87 3.07 3.36 3.31 3.37 3.28 3.01 2.78 2.58 2.29 2.04 1.77 1.55 1.52 1.51 1.49 1.62 1.53 1.31 1.26 1.24 1.11 1.02 1.02 1.04 1.01 0.91 0.83 0.75 0.67 0.58 0.51 0.43 0.37 0.31 0.26 0.23 0.22 0.21 0.21 0.22 0.28
2.30 2.62 2.78 3.02 3.25 3.33 3.26 2.94 2.65 2.48 2.43 2.27 1.97 1.74 1.71 1.66 1.55 1.58 1.61 1.47 1.30 1.27 1.22 1.12 1.08 1.06 1.11 1.17 1.14 0.99 0.86 0.74 0.61 0.51 0.46 0.39 0.33 0.28 0.26 0.27 0.28 0.29 0.30
2.02 2.22 2.53 2.64 2.95 3.01 2.93 2.89 2.74 2.66 2.60 2.49 2.32 2.01 1.86 1.81 1.70 1.60 1.57 1.55 1.40 1.29 1.33 1.36 1.28 1.20 1.15 1.17 1.23 1.22 1.09 1.00 0.78 0.58 0.53 0.50 0.44 0.41 0.38 0.35 0.35 0.37 0.38
1.74 2.04 2.18 2.33 2.58 2.84 2.90 3.05 3.13 3.07 2.81 2.54 2.39 2.29 2.09 1.97 1.90 1.75 1.65 1.64 1.57 1.42 1.30 1.37 1.42 1.40 1.39 1.39 1.33 1.43 1.33 1.09 0.89 0.70 0.58 0.54 0.51 0.50 0.47 0.45 0.43 0.44 0.45
1.39 1.78 2.11 2.30 2.47 2.66 2.98 2.97 2.85 2.71 2.53 2.25 2.25 2.32 2.31 2.19 2.07 1.91 1.83 1.80 1.71 1.60 1.47 1.45 1.49 1.55 1.59 1.58 1.53 1.41 1.31 1.14 1.09 0.91 0.67 0.57 0.53 0.48 0.48 0.49 0.47 0.43 0.43
1.14 1.48 1.83 2.10 2.41 2.65 2.77 2.79 2.81 2.60 2.42 2.37 2.30 2.30 2.21 2.12 2.08 2.02 1.94 1.97 1.89 1.76 1.71 1.72 1.69 1.71 1.72 1.69 1.62 1.53 1.48 1.33 1.18 1.12 0.89 0.68 0.65 0.58 0.51 0.48 0.49 0.50 0.52
0.95 1.18 1.53 1.80 1.97 2.27 2.57 2.59 2.58 2.55 2.50 2.47 2.27 2.19 2.17 2.12 2.07 2.01 2.01 2.03 2.03 1.96 1.86 1.84 1.84 1.87 1.87 1.82 1.78 1.64 1.55 1.48 1.33 1.31 1.18 0.93 0.86 0.77 0.68 0.61 0.58 0.57 0.59